Location: Mount Tamalpais State Park
(37.9108°N, 122.6128°W)
Time: 07:46:17
(UTC-07:00)

Cosmos 1814 Rocket - Visible Passes

Search period start: 26 September 2017 00:00
Search period end: 06 October 2017 00:00
Orbit: 746 x 787 km, 74.1° (Epoch: 26 September)

Date Brightness Start Highest point End Pass type
(mag) Time Alt. Az. Time Alt. Az. Time Alt. Az.
26 Sep 4.6 05:08:57 10° N 05:14:03 57° ENE 05:19:09 10° SSE visible
26 Sep 5.5 19:44:18 10° SW 19:49:06 39° WNW 19:53:55 10° N visible
27 Sep 5.6 04:31:43 10° N 04:36:21 33° ENE 04:41:00 10° SE visible
27 Sep 4.9 06:13:55 10° NW 06:18:12 27° W 06:22:30 10° SSW visible
28 Sep 6.4 03:54:51 10° NNE 03:58:33 19° ENE 04:02:16 10° ESE visible
28 Sep 4.1 05:35:51 10° NNW 05:40:49 48° WSW 05:45:48 10° S visible
28 Sep 6.9 20:13:37 10° W 20:16:25 15° WNW 20:19:13 10° NNW visible
29 Sep 7.0 03:18:59 10° NE 03:20:37 11° NE 03:22:15 10° ENE visible
29 Sep 3.8 04:58:07 10° NNW 05:03:19 86° WSW 05:08:33 10° SSE visible
29 Sep 6.4 19:34:22 10° WSW 19:38:32 24° WNW 19:42:43 10° N visible
30 Sep 5.5 04:20:40 10° N 04:28:20 27° SE 04:30:50 10° SE visible
30 Sep 5.6 06:08:59 14° WSW 06:08:59 14° WSW 06:10:20 10° SW visible
02 Oct 6.8 19:25:02 10° W 19:28:04 16° WNW 19:31:07 10° NNW visible
